SCP
-0 0 -0 -0 0 0 0 -0 0 -0 -0 -0 0 0 -0 -0 0 0 -0 -0 -1 -0 -0 -0 -1 -0 -0 -0 -0 -0 -0 -0 -0 -0 -0 -0 -0 -0 -0 -0 -0 -0 -0 -0 -0 -0 -0 -0 -0
-0 -0 -0 -0 0 0 0 0 -0 -0 -0 -0 0 0 -0 0 0 0 -0 -0 -0 -0 0 0 -0 -0 -0 -0 -0 -0 -0 -0 -0 -0 -0 -0 -0 -0 -0 -0 -0 -0 0 -0 -0 -0 -0 -0 -0
-0 -0 -0 -0 0 0 0 0 0 -0 -0 -0 0 0 0 0 0 0 -0 -0 -0 0 0 0 -0 -0 -0 -0 -0 -0 -0 -0 -0 -0 -0 -0 -0 0 0 0 0 0 0 -0 -0 -0 -0 -0 -0
-0 -0 0 0 -0 0 0 -0 0 0 -0 0 0 0 0 0 0 0 -0 -0 -0 0 0 0 0 0 -0 0 0 0 -0 -0 -0 -0 -0 0 0 0 0 0 0 0 0 0 -0 -0 -0 -0 0
0 0 0 0 -0 0 0 -0 0 -0 0 0 0 0 0 0 0 -0 -0 -0 -0 0 0 0 0 0 0 -0 0 0 -0 -0 -0 -0 0 0 0 0 0 0 0 0 0 0 0 0 0 0 0
0 0 0 0 0 -0 -0 0 -0 0 0 0 0 0 -0 -0 0 0 -0 -0 -0 -0 0 0 0 0 -0 -0 0 0 0 -0 -0 0 0 0 0 0 0 0 0 0 0 0 0 0 0 0 0
0 0 0 -0 -0 -0 0 0 0 0 -0 -0 0 0 0 0 0 -0 0 -0 -0 -0 -0 0 0 0 -0 -0 -0 -0 -0 0 0 0 0 0 0 0 0 0 0 0 0 0 0 0 0 0 0
-0 0 0 -0 -0 -0 -0 0 0 0 0 0 -0 0 -0 -0 0 -0 0 -1 -1 -0 -0 0 0 0 0 -0 -0 -0 -0 -0 0 0 0 0 0 0 0 0 0 0 0 0 0 0 0 0 0
0 0 0 -0 -0 0 -0 -0 0 0 0 0 -0 -0 -0 -0 0 -0 0 -0 -0 -0 -0 -0 -0 -0 -0 -0 -0 -0 -0 0 0 0 0 0 0 0 0 0 0 0 0 0 0 0 0 0 0
-0 -0 0 0 -0 -0 -0 -0 0 0 0 0 0 1 0 -0 -0 0 0 -0 -0 -0 -0 -0 -0 -0 -0 -0 -0 0 0 0 0 0 0 0 0 0 0 0 0 0 1 1 1 0 0 0 0
-0 -0 0 -0 0 -0 0 0 0 0 0 0 -0 0 0 -0 0 0 0 0 -0 -0 -0 -0 -0 -0 -0 -0 0 0 0 0 0 0 0 0 0 0 0 0 1 1 1 0 1 0 0 0 0
0 0 0 0 0 -0 0 0 0 0 -0 -0 -0 0 0 -0 0 0 -0 -0 0 -0 -0 -0 -0 -0 -0 0 0 0 0 0 0 0 0 0 0 0 0 0 1 1 0 0 0 0 0 0 0
0 0 0 0 -0 -0 -0 0 0 0 0 0 -0 0 0 -0 0 0 -0 0 0 0 -0 -0 -0 -0 -0 -0 0 0 0 0 -0 0 0 0 0 0 0 0 0 0 0 0 0 0 0 0 0
-0 -0 0 -0 -0 -0 -0 0 0 -0 -0 0 0 0 0 0 0 0 0 -0 -0 0 0 -0 -0 0 0 0 0 -0 -0 -0 0 0 0 1 0 0 0 0 0 0 0 0 0 0 0 0 0
-0 -0 0 0 0 0 -0 -0 -0 -0 -0 0 0 0 0 -0 0 0 0 0 -0 -0 -0 -0 0 0 0 0 0 0 0 0 0 0 1 1 0 0 1 1 0 0 0 0 0 0 0 0 0
0 0 0 -0 0 -0 0 -0 0 0 -0 0 0 0 0 0 0 0 0 0 -0 -0 -0 -0 0 0 0 0 0 0 0 0 0 0 1 1 1 1 1 1 0 0 0 0 0 0 0 0 0
-0 -0 -0 0 -0 0 0 -0 -0 -0 0 0 0 0 0 0 0 0 0 -0 -0 -0 0 0 0 0 0 0 0 0 0 0 0 1 1 1 1 1 1 1 0 0 0 0 0 0 0 0 0
0 0 -0 0 -0 0 0 0 -0 -0 0 0 0 0 0 0 0 0 0 0 -0 0 0 0 0 0 0 1 1 1 1 1 1 1 2 2 1 1 1 0 0 0 0 0 0 0 0 0 0
0 0 0 -0 0 0 0 0 0 0 0 0 0 0 0 0 0 0 0 0 0 -0 0 0 1 1 1 1 1 1 1 1 1 2 2 1 1 1 0 0 0 0 0 0 0 0 0 0 0
0 0 0 0 0 0 0 0 0 0 0 -0 0 0 0 0 0 1 0 1 1 -0 0 1 1 2 1 2 2 2 1 1 2 1 1 1 1 1 0 0 0 0 0 0 0 0 0 0 0
0 0 0 0 0 0 0 0 0 -0 -0 0 0 -0 0 0 0 1 1 1 3 1 0 1 1 3 3 3 3 3 2 3 2 2 2 1 1 0 0 0 0 0 0 0 0 0 0 0 0
0 0 -0 -0 0 0 0 -0 0 0 0 -0 0 -0 -0 0 0 1 5 6 4 4 4 4 3 4 4 5 4 3 4 3 3 2 1 1 0 0 0 0 0 0 0 0 0 0 0 0 0
0 0 0 0 0 0 -0 0 -0 -0 -0 0 0 0 0 0 0 1 2 2 2 3 5 6 6 9 8 8 7 5 5 4 2 2 1 0 0 0 0 0 0 0 0 0 0 0 0 0 0
0 0 0 0 0 -0 -0 0 -0 -0 -0 0 0 0 0 1 0 1 2 2 3 3 4 7 7 9 9 8 7 4 5 3 2 1 0 0 0 0 0 0 0 0 0 0 0 0 0 0 0
0 0 0 0 0 -0 -0 0 0 -0 -0 0 0 0 0 0 1 1 1 3 2 2 4 6 7 6 5 4 4 4 4 2 1 1 0 0 0 0 0 0 0 0 0 0 0 0 0 0 0
-0 0 0 0 0 -0 -0 0 -0 0 0 0 0 0 0 0 1 3 4 4 3 3 5 6 6 5 4 4 4 3 3 2 1 1 1 0 0 0 0 0 0 0 0 0 0 0 0 0 0
0 0 0 0 0 0 0 0 0 0 0 0 0 0 0 0 1 2 3 3 3 3 3 4 4 3 2 2 2 2 1 1 1 0 0 0 0 0 0 0 0 0 0 0 0 0 0 0 0
0 0 0 -0 0 0 -0 0 0 0 0 0 0 0 0 0 1 1 2 2 2 2 3 2 2 1 1 1 1 1 0 0 0 0 0 0 0 0 0 0 0 0 0 0 0 0 0 0 0
0 0 0 0 0 0 0 -0 -0 -0 0 0 0 0 -0 -0 0 2 3 2 2 4 3 2 1 1 1 1 0 0 0 0 0 0 0 0 0 0 0 0 0 0 0 0 0 0 0 0 0
0 0 0 0 0 0 0 -0 0 0 0 -0 0 0 0 0 0 3 3 3 4 3 3 3 2 1 1 0 0 0 0 0 0 0 0 0 0 0 0 0 0 0 0 0 0 0 0 0 0
Wind_Speed_500mb
40 26 13 9 6 11 8 10 16 20 25 19 40 37 32 22 9 13 43 36 41 44 51 46 42 38 35 33 30 30 26 23 21 18 16 16 16 15 12 10 10 8 6 7 12 14 15 15 15
47 24 14 12 7 5 9 18 41 49 52 51 31 48 42 16 34 54 39 32 35 39 46 44 41 38 36 34 32 29 26 22 19 15 14 14 12 11 8 6 5 3 7 11 11 12 11 12 13
45 34 6 8 7 12 11 20 25 14 46 65 13 27 17 19 41 48 36 47 36 36 43 43 41 38 36 35 32 28 24 20 16 13 11 11 9 7 4 4 3 5 7 7 7 6 7 9 12
32 10 12 3 19 34 15 16 39 21 30 35 39 17 43 21 33 47 48 44 36 38 43 43 41 38 36 34 31 27 22 18 13 11 9 8 6 4 2 5 1 1 2 4 3 4 7 11 14
39 15 8 11 32 12 12 39 44 20 18 57 59 28 35 31 31 54 51 38 22 44 45 43 39 36 34 31 28 24 20 16 13 9 7 6 3 0 4 5 2 2 2 3 5 7 11 14 18
18 19 10 13 23 25 11 14 14 39 36 51 56 35 14 29 28 51 41 26 13 41 39 40 38 35 32 28 25 23 20 16 12 9 7 5 3 3 6 6 5 5 6 8 11 13 16 20 23
20 5 16 25 30 26 16 15 12 21 24 8 52 13 12 32 35 41 44 40 32 32 30 32 36 35 31 27 24 22 19 15 12 9 8 5 5 5 7 7 8 9 11 13 15 18 22 26 29
41 4 20 25 17 29 24 17 16 13 40 80 24 8 5 30 32 33 36 44 43 33 21 23 32 32 30 28 25 21 18 16 14 11 9 7 6 6 3 9 11 13 15 18 21 23 26 29 33
40 6 16 26 27 13 53 18 6 21 47 58 58 56 36 38 33 31 43 51 44 35 23 20 33 32 31 28 24 20 18 17 15 14 11 9 8 8 7 7 6 11 21 26 25 27 30 29 27
21 5 19 31 34 20 31 22 10 11 22 10 39 51 17 45 41 46 35 58 47 43 29 19 30 31 29 28 22 16 12 16 17 15 14 12 8 8 5 12 24 30 25 24 19 23 21 27 24
43 15 30 52 58 56 26 36 33 24 6 19 27 39 48 48 47 49 41 42 37 27 36 32 29 27 17 29 26 15 12 20 15 16 17 13 13 10 14 20 16 17 21 22 21 15 21 27 32
13 50 52 58 57 52 25 42 28 19 19 33 28 48 46 46 45 49 43 50 46 41 41 35 30 27 22 20 22 20 10 16 12 10 10 7 14 18 16 18 21 18 19 17 17 20 26 31 35
13 25 49 46 42 43 48 23 25 33 21 37 46 55 51 51 42 50 46 51 50 46 41 44 36 33 31 38 40 28 19 17 14 13 18 14 20 30 38 28 36 23 21 16 27 27 35 45 55
35 45 37 38 32 39 23 25 42 52 22 44 51 62 56 57 47 51 51 52 58 55 56 46 47 45 46 35 40 30 25 19 20 20 27 29 28 28 30 31 37 38 44 50 50 51 48 50 47
50 20 21 35 46 24 41 19 17 49 26 35 72 61 65 64 49 52 51 55 59 57 58 60 57 52 42 60 50 48 38 35 38 39 33 34 33 27 38 40 43 43 43 46 45 42 45 48 35
16 15 9 29 33 43 22 20 27 47 24 42 46 61 66 66 62 59 55 54 60 62 64 58 58 55 46 68 59 55 51 50 49 38 39 42 43 37 37 39 43 44 42 40 40 45 49 38 40
10 18 20 30 48 15 16 17 32 50 35 32 29 48 63 71 66 67 63 66 63 64 63 56 58 55 49 49 65 62 51 44 34 35 37 42 42 43 39 34 38 37 39 42 43 46 40 40 45
17 15 16 13 19 8 15 20 15 31 28 35 42 49 69 77 79 77 74 72 71 70 63 57 60 56 48 44 50 51 50 43 40 40 42 45 47 47 37 33 35 36 39 41 42 35 38 47 50
17 17 16 15 27 14 8 7 14 32 41 32 43 26 42 78 82 85 83 80 73 68 65 61 62 58 55 54 52 51 47 43 41 48 47 52 50 46 39 35 38 34 32 33 30 34 47 48 46
19 11 16 18 24 17 21 13 13 16 31 50 42 51 43 35 72 87 89 86 83 76 72 69 65 62 64 53 56 49 39 38 45 48 55 52 49 48 44 36 32 34 34 30 33 41 43 48 49
15 12 14 19 24 18 16 17 21 26 41 59 56 56 47 28 15 81 94 90 83 78 76 71 66 63 61 64 46 43 30 43 57 57 57 50 45 46 45 31 31 35 31 34 40 41 45 45 39
9 21 18 17 10 6 11 20 33 22 23 27 54 54 48 31 17 58 90 85 80 75 73 66 61 61 59 62 49 48 45 54 66 62 53 43 41 42 30 32 33 30 29 33 36 39 39 41 37
13 15 14 11 13 14 17 7 24 30 32 20 22 48 21 28 26 65 75 75 65 64 57 55 60 55 53 56 62 57 55 51 54 52 44 39 38 31 32 31 33 32 33 37 36 36 34 32 29
11 8 14 13 5 9 26 12 29 22 13 17 22 38 34 39 53 60 62 60 51 42 35 40 43 46 50 52 53 60 49 49 49 49 42 43 36 33 33 33 33 31 35 36 31 31 31 29 26
11 6 7 8 5 18 15 9 30 23 8 10 16 24 17 38 56 59 54 46 38 36 40 44 51 47 41 48 49 51 42 52 49 51 47 40 38 35 29 32 30 34 38 32 28 26 25 17 19
7 12 9 7 8 15 13 11 14 17 11 27 28 24 26 26 47 62 55 47 41 46 46 48 44 36 39 36 37 42 39 52 49 44 39 40 35 31 32 31 36 41 34 28 26 25 23 16 20
9 7 14 2 9 9 9 19 13 25 35 38 53 42 8 9 25 50 50 42 47 48 46 51 39 24 33 35 39 41 46 43 44 44 42 33 34 31 34 36 40 33 26 24 24 27 26 23 30
12 9 9 7 3 11 12 5 5 20 18 21 29 53 52 26 29 34 33 34 30 27 44 47 30 24 27 36 40 38 40 42 44 41 37 36 40 42 41 38 33 27 26 27 27 29 31 33 29
9 6 7 8 8 7 5 11 12 12 14 16 9 41 38 8 17 29 33 27 33 34 44 36 32 28 27 31 42 39 43 42 38 32 34 37 36 32 33 28 22 24 27 29 31 33 34 39 34
15 11 11 10 13 7 9 13 10 9 20 42 36 51 55 46 22 38 35 28 29 38 41 40 33 29 27 23 35 38 41 41 36 35 34 33 28 26 25 21 22 24 29 32 34 34 39 34 36
Wind_Direction_500mb
338 343 344 291 60 94 167 179 125 206 288 315 65 83 85 65 56 143 149 176 166 155 154 157 152 146 143 139 133 128 126 123 116 109 104 102 102 101 97 96 96 90 88 97 99 92 85 79 68
338 344 297 270 108 126 241 150 171 211 227 283 99 92 79 78 109 132 153 171 155 155 157 154 150 148 145 141 136 135 133 128 118 113 111 106 104 98 93 92 72 78 117 115 104 90 76 59 42
328 328 245 167 157 211 226 199 200 173 272 282 126 92 72 114 129 143 168 162 159 162 158 154 150 149 146 142 141 141 137 130 126 122 114 111 116 110 94 46 32 113 119 107 98 81 53 32 15
334 333 276 115 263 280 184 212 214 185 255 235 114 59 59 118 140 152 164 160 159 162 157 153 152 152 148 147 147 144 138 136 138 132 132 126 130 109 13 1 56 112 81 69 42 5 355 351 343
317 262 291 308 282 270 197 201 231 125 59 47 86 81 68 55 111 151 163 161 164 162 157 154 155 155 153 152 152 148 145 153 156 152 149 141 167 178 338 337 273 269 288 283 297 311 320 324 327
308 303 330 295 302 318 328 50 335 95 74 105 101 89 106 122 125 151 160 168 152 149 156 159 160 160 159 158 159 159 164 171 169 169 163 182 202 268 313 311 270 269 278 285 290 299 309 317 319
271 314 274 288 301 309 317 341 62 50 115 113 129 124 131 149 136 153 160 171 164 149 147 171 169 166 166 167 169 175 177 182 186 190 194 201 232 271 307 301 272 272 277 285 292 300 308 311 312
281 312 293 285 288 300 288 283 96 105 56 74 124 132 246 159 144 156 167 177 163 164 157 183 181 177 177 179 181 187 191 196 203 207 207 222 248 273 326 304 282 286 295 302 303 303 305 308 311
275 320 276 273 280 206 270 300 157 113 103 87 82 86 108 150 161 163 153 172 171 165 163 171 189 189 188 190 192 196 205 210 215 220 222 236 251 242 259 313 314 317 321 308 301 295 298 307 312
238 236 259 269 278 287 320 285 305 113 126 98 112 133 139 172 178 175 167 171 179 168 181 179 188 193 198 199 191 189 221 234 231 229 229 238 197 230 269 317 307 307 310 322 302 290 308 303 293
244 225 257 273 282 297 316 319 329 119 23 179 170 157 154 176 177 172 174 179 178 202 194 187 159 164 169 181 182 214 286 235 230 233 223 194 186 280 274 292 301 315 290 313 299 297 292 281 292
234 249 248 266 281 294 300 314 328 343 179 161 149 150 160 166 181 181 181 186 184 197 199 185 175 165 175 201 201 212 237 214 205 232 252 244 224 240 253 253 275 277 268 273 268 277 273 285 286
271 259 260 270 289 304 304 304 299 311 155 159 142 156 164 168 188 193 187 185 186 176 180 183 186 171 186 212 211 210 233 230 227 226 255 270 264 225 218 239 253 249 257 245 244 258 263 278 292
296 301 304 307 294 290 295 294 281 282 245 175 175 164 164 178 184 192 186 186 188 187 190 199 193 185 198 205 199 209 226 228 222 234 252 251 262 232 217 234 240 244 251 258 262 271 285 294 307
308 288 294 290 277 254 270 309 277 272 280 183 183 170 172 181 182 190 188 190 195 195 191 198 209 212 217 199 195 200 205 204 208 233 241 250 257 253 234 236 248 257 263 269 277 289 294 301 294
311 310 271 265 252 245 218 260 278 282 282 277 189 180 181 182 183 187 187 191 192 192 195 201 208 217 211 205 206 216 212 216 226 229 236 245 253 256 254 245 250 262 271 279 283 290 296 292 296
284 263 269 274 254 190 153 235 248 260 279 261 191 210 191 187 186 188 191 197 194 196 197 208 212 217 213 208 210 220 224 223 214 226 241 241 249 259 266 255 252 258 270 280 284 291 293 298 294
278 291 290 299 327 126 187 227 248 250 261 275 214 236 201 190 191 193 193 200 202 203 209 210 212 219 215 219 216 216 221 216 217 221 236 239 246 259 269 263 262 261 270 279 286 290 293 295 300
259 285 306 318 322 21 307 307 318 324 309 294 300 284 229 197 202 197 194 198 201 209 207 208 209 215 216 224 223 224 224 218 219 225 233 239 247 260 263 266 262 265 270 274 282 289 287 297 303
276 335 326 321 315 355 328 318 309 287 276 280 272 277 275 252 210 200 194 198 202 206 213 209 212 214 221 223 230 234 243 227 230 231 230 235 248 259 265 265 259 268 276 279 279 281 287 292 298
333 329 314 289 301 324 351 326 301 275 254 260 257 257 259 246 191 199 195 197 202 205 211 213 215 216 220 228 227 227 220 219 223 227 230 237 252 257 267 255 253 261 269 276 278 282 285 289 292
295 291 300 308 8 297 12 304 293 278 296 227 242 249 242 220 192 187 191 195 201 204 207 212 213 216 213 221 222 219 215 220 222 228 229 236 256 268 251 251 255 269 280 280 284 288 290 290 293
238 294 304 318 343 8 296 332 286 303 311 237 238 232 190 114 162 171 177 185 188 191 193 203 208 212 212 211 222 225 225 226 227 226 235 249 262 252 253 253 265 277 287 291 291 286 286 295 293
297 285 320 345 33 312 267 183 288 277 246 59 74 81 97 150 162 172 182 182 182 195 221 232 231 224 230 233 226 231 227 222 225 237 244 254 259 258 259 255 266 279 289 292 294 291 292 298 297
319 53 331 333 2 247 301 289 237 271 298 121 141 160 148 154 171 173 179 183 190 198 208 220 229 232 234 242 238 228 219 230 228 234 236 248 252 251 255 269 278 288 294 298 295 298 312 307 303
265 162 164 259 286 290 333 297 306 277 35 68 98 121 152 178 169 171 169 182 196 197 206 221 225 226 238 226 219 219 221 212 226 221 231 246 249 258 268 278 282 287 289 299 308 316 325 313 299
282 295 229 212 292 359 273 304 58 22 28 12 16 6 46 230 153 172 184 190 194 198 218 229 218 245 235 219 211 213 214 218 220 221 235 233 230 238 252 269 278 288 301 307 313 315 317 307 305
169 231 352 347 273 276 306 315 248 15 357 4 358 349 10 114 134 151 176 194 197 210 213 209 224 246 236 232 212 211 216 227 231 235 233 224 239 250 262 272 283 297 313 318 312 306 302 308 292
349 247 263 153 162 182 261 277 208 17 10 335 32 276 334 138 171 192 184 174 173 208 202 210 216 228 234 237 220 219 225 221 223 229 234 241 246 262 271 277 294 304 303 305 301 300 298 306 301
291 266 190 141 268 235 182 271 287 16 90 54 32 5 356 5 345 180 172 193 181 198 204 216 210 218 239 248 220 216 219 230 231 233 237 245 260 266 277 291 294 293 290 292 295 294 300 301 304
Wind_Speed_850mb
40 26 13 9 6 11 8 10 16 20 25 19 40 37 32 22 9 13 43 36 41 44 51 46 42 38 35 33 30 30 26 23 21 18 16 16 16 15 12 10 10 8 6 7 12 14 15 15 15
47 24 14 12 7 5 9 18 41 49 52 51 31 48 42 16 34 54 39 32 35 39 46 44 41 38 36 34 32 29 26 22 19 15 14 14 12 11 8 6 5 3 7 11 11 12 11 12 13
45 34 6 8 7 12 11 20 25 14 46 65 13 27 17 19 41 48 36 47 36 36 43 43 41 38 36 35 32 28 24 20 16 13 11 11 9 7 4 4 3 5 7 7 7 6 7 9 12
32 10 12 3 19 34 15 16 39 21 30 35 39 17 43 21 33 47 48 44 36 38 43 43 41 38 36 34 31 27 22 18 13 11 9 8 6 4 2 5 1 1 2 4 3 4 7 11 14
39 15 8 11 32 12 12 39 44 20 18 57 59 28 35 31 31 54 51 38 22 44 45 43 39 36 34 31 28 24 20 16 13 9 7 6 3 0 4 5 2 2 2 3 5 7 11 14 18
18 19 10 13 23 25 11 14 14 39 36 51 56 35 14 29 28 51 41 26 13 41 39 40 38 35 32 28 25 23 20 16 12 9 7 5 3 3 6 6 5 5 6 8 11 13 16 20 23
20 5 16 25 30 26 16 15 12 21 24 8 52 13 12 32 35 41 44 40 32 32 30 32 36 35 31 27 24 22 19 15 12 9 8 5 5 5 7 7 8 9 11 13 15 18 22 26 29
41 4 20 25 17 29 24 17 16 13 40 80 24 8 5 30 32 33 36 44 43 33 21 23 32 32 30 28 25 21 18 16 14 11 9 7 6 6 3 9 11 13 15 18 21 23 26 29 33
40 6 16 26 27 13 53 18 6 21 47 58 58 56 36 38 33 31 43 51 44 35 23 20 33 32 31 28 24 20 18 17 15 14 11 9 8 8 7 7 6 11 21 26 25 27 30 29 27
21 5 19 31 34 20 31 22 10 11 22 10 39 51 17 45 41 46 35 58 47 43 29 19 30 31 29 28 22 16 12 16 17 15 14 12 8 8 5 12 24 30 25 24 19 23 21 27 24
43 15 30 52 58 56 26 36 33 24 6 19 27 39 48 48 47 49 41 42 37 27 36 32 29 27 17 29 26 15 12 20 15 16 17 13 13 10 14 20 16 17 21 22 21 15 21 27 32
13 50 52 58 57 52 25 42 28 19 19 33 28 48 46 46 45 49 43 50 46 41 41 35 30 27 22 20 22 20 10 16 12 10 10 7 14 18 16 18 21 18 19 17 17 20 26 31 35
13 25 49 46 42 43 48 23 25 33 21 37 46 55 51 51 42 50 46 51 50 46 41 44 36 33 31 38 40 28 19 17 14 13 18 14 20 30 38 28 36 23 21 16 27 27 35 45 55
35 45 37 38 32 39 23 25 42 52 22 44 51 62 56 57 47 51 51 52 58 55 56 46 47 45 46 35 40 30 25 19 20 20 27 29 28 28 30 31 37 38 44 50 50 51 48 50 47
50 20 21 35 46 24 41 19 17 49 26 35 72 61 65 64 49 52 51 55 59 57 58 60 57 52 42 60 50 48 38 35 38 39 33 34 33 27 38 40 43 43 43 46 45 42 45 48 35
16 15 9 29 33 43 22 20 27 47 24 42 46 61 66 66 62 59 55 54 60 62 64 58 58 55 46 68 59 55 51 50 49 38 39 42 43 37 37 39 43 44 42 40 40 45 49 38 40
10 18 20 30 48 15 16 17 32 50 35 32 29 48 63 71 66 67 63 66 63 64 63 56 58 55 49 49 65 62 51 44 34 35 37 42 42 43 39 34 38 37 39 42 43 46 40 40 45
17 15 16 13 19 8 15 20 15 31 28 35 42 49 69 77 79 77 74 72 71 70 63 57 60 56 48 44 50 51 50 43 40 40 42 45 47 47 37 33 35 36 39 41 42 35 38 47 50
17 17 16 15 27 14 8 7 14 32 41 32 43 26 42 78 82 85 83 80 73 68 65 61 62 58 55 54 52 51 47 43 41 48 47 52 50 46 39 35 38 34 32 33 30 34 47 48 46
19 11 16 18 24 17 21 13 13 16 31 50 42 51 43 35 72 87 89 86 83 76 72 69 65 62 64 53 56 49 39 38 45 48 55 52 49 48 44 36 32 34 34 30 33 41 43 48 49
15 12 14 19 24 18 16 17 21 26 41 59 56 56 47 28 15 81 94 90 83 78 76 71 66 63 61 64 46 43 30 43 57 57 57 50 45 46 45 31 31 35 31 34 40 41 45 45 39
9 21 18 17 10 6 11 20 33 22 23 27 54 54 48 31 17 58 90 85 80 75 73 66 61 61 59 62 49 48 45 54 66 62 53 43 41 42 30 32 33 30 29 33 36 39 39 41 37
13 15 14 11 13 14 17 7 24 30 32 20 22 48 21 28 26 65 75 75 65 64 57 55 60 55 53 56 62 57 55 51 54 52 44 39 38 31 32 31 33 32 33 37 36 36 34 32 29
11 8 14 13 5 9 26 12 29 22 13 17 22 38 34 39 53 60 62 60 51 42 35 40 43 46 50 52 53 60 49 49 49 49 42 43 36 33 33 33 33 31 35 36 31 31 31 29 26
11 6 7 8 5 18 15 9 30 23 8 10 16 24 17 38 56 59 54 46 38 36 40 44 51 47 41 48 49 51 42 52 49 51 47 40 38 35 29 32 30 34 38 32 28 26 25 17 19
7 12 9 7 8 15 13 11 14 17 11 27 28 24 26 26 47 62 55 47 41 46 46 48 44 36 39 36 37 42 39 52 49 44 39 40 35 31 32 31 36 41 34 28 26 25 23 16 20
9 7 14 2 9 9 9 19 13 25 35 38 53 42 8 9 25 50 50 42 47 48 46 51 39 24 33 35 39 41 46 43 44 44 42 33 34 31 34 36 40 33 26 24 24 27 26 23 30
12 9 9 7 3 11 12 5 5 20 18 21 29 53 52 26 29 34 33 34 30 27 44 47 30 24 27 36 40 38 40 42 44 41 37 36 40 42 41 38 33 27 26 27 27 29 31 33 29
9 6 7 8 8 7 5 11 12 12 14 16 9 41 38 8 17 29 33 27 33 34 44 36 32 28 27 31 42 39 43 42 38 32 34 37 36 32 33 28 22 24 27 29 31 33 34 39 34
15 11 11 10 13 7 9 13 10 9 20 42 36 51 55 46 22 38 35 28 29 38 41 40 33 29 27 23 35 38 41 41 36 35 34 33 28 26 25 21 22 24 29 32 34 34 39 34 36
Wind_Direction_850mb
338 343 344 291 60 94 167 179 125 206 288 315 65 83 85 65 56 143 149 176 166 155 154 157 152 146 143 139 133 128 126 123 116 109 104 102 102 101 97 96 96 90 88 97 99 92 85 79 68
338 344 297 270 108 126 241 150 171 211 227 283 99 92 79 78 109 132 153 171 155 155 157 154 150 148 145 141 136 135 133 128 118 113 111 106 104 98 93 92 72 78 117 115 104 90 76 59 42
328 328 245 167 157 211 226 199 200 173 272 282 126 92 72 114 129 143 168 162 159 162 158 154 150 149 146 142 141 141 137 130 126 122 114 111 116 110 94 46 32 113 119 107 98 81 53 32 15
334 333 276 115 263 280 184 212 214 185 255 235 114 59 59 118 140 152 164 160 159 162 157 153 152 152 148 147 147 144 138 136 138 132 132 126 130 109 13 1 56 112 81 69 42 5 355 351 343
317 262 291 308 282 270 197 201 231 125 59 47 86 81 68 55 111 151 163 161 164 162 157 154 155 155 153 152 152 148 145 153 156 152 149 141 167 178 338 337 273 269 288 283 297 311 320 324 327
308 303 330 295 302 318 328 50 335 95 74 105 101 89 106 122 125 151 160 168 152 149 156 159 160 160 159 158 159 159 164 171 169 169 163 182 202 268 313 311 270 269 278 285 290 299 309 317 319
271 314 274 288 301 309 317 341 62 50 115 113 129 124 131 149 136 153 160 171 164 149 147 171 169 166 166 167 169 175 177 182 186 190 194 201 232 271 307 301 272 272 277 285 292 300 308 311 312
281 312 293 285 288 300 288 283 96 105 56 74 124 132 246 159 144 156 167 177 163 164 157 183 181 177 177 179 181 187 191 196 203 207 207 222 248 273 326 304 282 286 295 302 303 303 305 308 311
275 320 276 273 280 206 270 300 157 113 103 87 82 86 108 150 161 163 153 172 171 165 163 171 189 189 188 190 192 196 205 210 215 220 222 236 251 242 259 313 314 317 321 308 301 295 298 307 312
238 236 259 269 278 287 320 285 305 113 126 98 112 133 139 172 178 175 167 171 179 168 181 179 188 193 198 199 191 189 221 234 231 229 229 238 197 230 269 317 307 307 310 322 302 290 308 303 293
244 225 257 273 282 297 316 319 329 119 23 179 170 157 154 176 177 172 174 179 178 202 194 187 159 164 169 181 182 214 286 235 230 233 223 194 186 280 274 292 301 315 290 313 299 297 292 281 292
234 249 248 266 281 294 300 314 328 343 179 161 149 150 160 166 181 181 181 186 184 197 199 185 175 165 175 201 201 212 237 214 205 232 252 244 224 240 253 253 275 277 268 273 268 277 273 285 286
271 259 260 270 289 304 304 304 299 311 155 159 142 156 164 168 188 193 187 185 186 176 180 183 186 171 186 212 211 210 233 230 227 226 255 270 264 225 218 239 253 249 257 245 244 258 263 278 292
296 301 304 307 294 290 295 294 281 282 245 175 175 164 164 178 184 192 186 186 188 187 190 199 193 185 198 205 199 209 226 228 222 234 252 251 262 232 217 234 240 244 251 258 262 271 285 294 307
308 288 294 290 277 254 270 309 277 272 280 183 183 170 172 181 182 190 188 190 195 195 191 198 209 212 217 199 195 200 205 204 208 233 241 250 257 253 234 236 248 257 263 269 277 289 294 301 294
311 310 271 265 252 245 218 260 278 282 282 277 189 180 181 182 183 187 187 191 192 192 195 201 208 217 211 205 206 216 212 216 226 229 236 245 253 256 254 245 250 262 271 279 283 290 296 292 296
284 263 269 274 254 190 153 235 248 260 279 261 191 210 191 187 186 188 191 197 194 196 197 208 212 217 213 208 210 220 224 223 214 226 241 241 249 259 266 255 252 258 270 280 284 291 293 298 294
278 291 290 299 327 126 187 227 248 250 261 275 214 236 201 190 191 193 193 200 202 203 209 210 212 219 215 219 216 216 221 216 217 221 236 239 246 259 269 263 262 261 270 279 286 290 293 295 300
259 285 306 318 322 21 307 307 318 324 309 294 300 284 229 197 202 197 194 198 201 209 207 208 209 215 216 224 223 224 224 218 219 225 233 239 247 260 263 266 262 265 270 274 282 289 287 297 303
276 335 326 321 315 355 328 318 309 287 276 280 272 277 275 252 210 200 194 198 202 206 213 209 212 214 221 223 230 234 243 227 230 231 230 235 248 259 265 265 259 268 276 279 279 281 287 292 298
333 329 314 289 301 324 351 326 301 275 254 260 257 257 259 246 191 199 195 197 202 205 211 213 215 216 220 228 227 227 220 219 223 227 230 237 252 257 267 255 253 261 269 276 278 282 285 289 292
295 291 300 308 8 297 12 304 293 278 296 227 242 249 242 220 192 187 191 195 201 204 207 212 213 216 213 221 222 219 215 220 222 228 229 236 256 268 251 251 255 269 280 280 284 288 290 290 293
238 294 304 318 343 8 296 332 286 303 311 237 238 232 190 114 162 171 177 185 188 191 193 203 208 212 212 211 222 225 225 226 227 226 235 249 262 252 253 253 265 277 287 291 291 286 286 295 293
297 285 320 345 33 312 267 183 288 277 246 59 74 81 97 150 162 172 182 182 182 195 221 232 231 224 230 233 226 231 227 222 225 237 244 254 259 258 259 255 266 279 289 292 294 291 292 298 297
319 53 331 333 2 247 301 289 237 271 298 121 141 160 148 154 171 173 179 183 190 198 208 220 229 232 234 242 238 228 219 230 228 234 236 248 252 251 255 269 278 288 294 298 295 298 312 307 303
265 162 164 259 286 290 333 297 306 277 35 68 98 121 152 178 169 171 169 182 196 197 206 221 225 226 238 226 219 219 221 212 226 221 231 246 249 258 268 278 282 287 289 299 308 316 325 313 299
282 295 229 212 292 359 273 304 58 22 28 12 16 6 46 230 153 172 184 190 194 198 218 229 218 245 235 219 211 213 214 218 220 221 235 233 230 238 252 269 278 288 301 307 313 315 317 307 305
169 231 352 347 273 276 306 315 248 15 357 4 358 349 10 114 134 151 176 194 197 210 213 209 224 246 236 232 212 211 216 227 231 235 233 224 239 250 262 272 283 297 313 318 312 306 302 308 292
349 247 263 153 162 182 261 277 208 17 10 335 32 276 334 138 171 192 184 174 173 208 202 210 216 228 234 237 220 219 225 221 223 229 234 241 246 262 271 277 294 304 303 305 301 300 298 306 301
291 266 190 141 268 235 182 271 287 16 90 54 32 5 356 5 345 180 172 193 181 198 204 216 210 218 239 248 220 216 219 230 231 233 237 245 260 266 277 291 294 293 290 292 295 294 300 301 304